FW5697 Weather Reports


Display with metric or nautical units.
time (UTC)temp
F
wind
direction
speed
MPH
gust
MPH
rain 1hr
in
rain 24hr
in
rain mn
in
humidity
%
barometer
mb
20260504010029 61 0 0.0 0.0 0.00 0.00 0.00 62 1016.8
20260504004528 62 0 0.0 0.0 0.00 0.00 0.00 54 1016.6
20260504003032 64 0 0.0 0.0 0.00 0.00 0.00 52 1016.4
20260504001530 65 0 0.0 0.0 0.00 0.00 0.00 46 1016.4
20260504000027 67 0 0.0 1.0 0.00 0.00 0.00 46 1016.4
20260503234528 68 0 0.0 3.0 0.00 0.00 0.00 41 1016.3
20260503233035 70 341 0.0 5.0 0.00 0.00 0.00 38 1016.2
20260503231528 70 318 0.0 2.0 0.00 0.00 0.00 37 1016.3
20260503230032 71 0 0.0 3.0 0.00 0.00 0.00 37 1016.3
20260503224531 72 184 1.0 4.0 0.00 0.00 0.00 34 1016.5
20260503223028 72 42 1.0 8.0 0.00 0.00 0.00 33 1016.4
20260503221528 72 144 1.0 5.0 0.00 0.00 0.00 32 1016.5
20260503220028 72 0 0.0 6.0 0.00 0.00 0.00 31 1016.6
20260503214534 72 181 2.0 6.0 0.00 0.00 0.00 32 1016.7
20260503213029 72 235 0.0 8.0 0.00 0.00 0.00 32 1016.8
20260503211533 72 306 1.0 5.0 0.00 0.00 0.00 31 1016.8
20260503210030 72 137 2.0 9.0 0.00 0.00 0.00 32 1017.0
20260503204532 72 157 2.0 9.0 0.00 0.00 0.00 35 1017.1
20260503203030 72 179 1.0 5.0 0.00 0.00 0.00 33 1017.2
20260503201530 72 155 1.0 5.0 0.00 0.00 0.00 34 1017.4
20260503200031 71 207 1.0 5.0 0.00 0.00 0.00 33 1017.6
20260503194526 71 146 1.0 6.0 0.00 0.00 0.00 37 1017.9
20260503193027 70 147 1.0 5.0 0.00 0.00 0.00 34 1018.1
20260503191530 70 278 2.0 9.0 0.00 0.00 0.00 36 1018.3
20260503190041 70 221 1.0 5.0 0.00 0.00 0.00 36 1018.5
20260503184527 69 194 2.0 5.0 0.00 0.00 0.00 36 1018.7
20260503183028 69 103 1.0 7.0 0.00 0.00 0.00 39 1019.0
20260503181528 68 0 0.0 5.0 0.00 0.00 0.00 40 1019.2
20260503180037 68 186 2.0 6.0 0.00 0.00 0.00 37 1019.3
20260503174529 67 300 0.0 4.0 0.00 0.00 0.00 41 1019.4
20260503173028 67 213 3.0 9.0 0.00 0.00 0.00 41 1019.5
20260503171538 66 153 2.0 5.0 0.00 0.00 0.00 41 1019.7
20260503081538 46 0 0.0 0.0 0.00 0.09 0.00 85 1017.8
20260503071529 46 0 0.0 1.0 0.00 0.11 0.00 87 1017.3
20260503054536 46 0 0.0 0.0 0.00 0.16 0.00 85 1017.1
20260503053030 47 0 0.0 0.0 0.00 0.16 0.00 85 1017.2
20260503051530 47 0 0.0 0.0 0.00 0.16 0.00 84 1017.0
20260503050029 47 0 0.0 0.0 0.00 0.16 0.00 83 1016.8
20260503044529 48 0 0.0 0.0 0.00 0.16 0.00 81 1016.7
20260503043031 48 0 0.0 0.0 0.00 0.16 0.00 81 1016.7
20260503041528 49 0 0.0 0.0 0.00 0.16 0.00 79 1016.7
20260503040029 49 0 0.0 0.0 0.00 0.16 0.00 78 1016.6
20260503034528 50 0 0.0 0.0 0.00 0.16 0.16 75 1016.4
20260503033041 50 0 0.0 0.0 0.00 0.16 0.16 75 1016.4
20260503031527 51 0 0.0 0.0 0.00 0.16 0.16 72 1016.3
20260503030026 52 0 0.0 0.0 0.00 0.16 0.16 69 1016.1
20260503024532 53 0 0.0 0.0 0.00 0.16 0.16 66 1015.9
20260503023030 54 0 0.0 0.0 0.00 0.16 0.16 62 1015.7
20260503021529 55 0 0.0 0.0 0.00 0.16 0.16 57 1015.5
20260503020027 56 0 0.0 0.0 0.00 0.16 0.16 57 1015.3
20260503014541 58 0 0.0 1.0 0.00 0.16 0.16 50 1015.1
20260503013033 59 0 0.0 1.0 0.00 0.16 0.16 49 1015.0
20260503011530 60 0 0.0 2.0 0.00 0.16 0.16 45 1014.7